STARLINK-1265, 45406

Orbit data source: Space-Track

STARLINK-1265, 45406 is a payload satellite owned by SpaceX/Seattle (US) in LEO that was launched on Wed, 18 Mar 2020 UTC via an FALCON 9 launch vehicle from the Air Force Eastern Test Range (AFETR). Payload-class satellites include a variety of spacecraft equipped with specific instruments for various scientific and technological missions. These include communications satellites like Starlink; space stations such as the ISS; scientific satellites like the Hubble; Earth observation satellites from companies like Planet Labs, Umbra, and HawkEye 360; GPS; miniature CubeSats for education and research; and military/defense satellites.

Loading next visibility...
Identifier
45406, 2020-019AY
Orbit
LEO
Country
Flag of USUS
Related business
Manufacturer
SpaceX/Seattle
Mission
Operational Commercial Communications
Bus & Motor
STARLINK, Unknown motor
Mass
260 kg wet, ~248 kg dry
Launch date (UTC)
2020-03-18 (6 years ago)
Launch vehicle
FALCON 9
Launch site
Air Force Eastern Test Range (AFETR)
Object type
Payload
Rocket body
Debris
Shape & HBR
Box + 1 Pan, 4.4 m
Radar Cross Section
13.562 m², Large (>1 m²)

Expand to show TLE details & history
Last TLE update: 1 day ago

TLE from 1 day ago
0 STARLINK-1265
1 45406U 20019AY  25260.21240585  .00000005  00000-0  19262-4 0  9992
2 45406  53.0543 195.3891 0001631  97.2436 262.8739 15.06383830303717
Epoch: 2025-09-17T05:05Z
TLE epoch observation values (Epoch: 2025-09-17T05:05:51.865Z)
Latitude
0.00003°
Longitude
122.53142°
Altitude
548.281 km
Speed
7.589 km/s
True Right ascension
13h 01m 33s
True Declination
0° 00' 00"
Sunlit
Object was in daylight at epoch
Visualization orbit readout
Latitude
Unknown
Longitude
Unknown
Altitude
Unknown
Speed
Unknown
Apparent Right ascension
Unknown
Apparent Declination
Unknown
Sunlit
N/A
Visualization observer readout
Local Sidereal Time
00:59:20
Azimuth
Unknown
Elevation
Unknown
Doppler factor
Unknown
Orbital elements
Apogee altitude
548.661 km
Perigee altitude
546.402 km
Semi-major axis
6,925.669 km
Eccentricity
0.00016
Inclination
53.0543°
RAAN
195.3891°
Arg. of periapsis
97.2436°
True anomaly
262.85535°
Mean anomaly
262.8739°
Eccentric anomaly
262.86463°
Mean motion
3.76574 °/min
Orbital period
95.6 mins
BSTAR
0.000019262
Loading maneuver chart data...
Computing Atmospheric mass density...
Loading historical data...
Loading historical data...
Loading historical data...
Loading historical data...
Loading historical data...
Loading historical data...
Loading historical data...

Documentation

Showing up to 5 results
|